RH
40 45 46 49 51 51 48 49 55 52 57 56 60 67 70 69 65 68 67 68 67 76 75 77 80 76 75 73 73 64 71 60
41 45 46 49 55 49 46 45 52 56 51 49 52 52 60 65 63 57 62 63 61 69 73 73 78 78 77 76 76 78 72 62
40 46 48 47 46 50 48 47 50 58 58 60 57 57 59 62 66 60 56 59 60 62 68 69 71 75 76 76 79 82 79 76
40 43 46 47 48 51 49 48 50 54 54 58 57 59 59 60 62 63 60 56 60 59 64 67 69 74 74 78 80 78 82 76
38 42 50 50 48 51 50 49 48 47 51 56 55 59 57 63 68 67 66 62 58 61 62 65 66 76 69 74 74 78 80 77
41 41 45 50 49 50 50 51 50 50 51 53 58 58 64 66 68 71 71 70 68 65 69 71 75 78 77 74 72 76 83 81
37 39 49 50 53 53 51 50 47 50 53 54 56 62 68 74 78 83 83 82 82 75 74 80 80 77 80 79 74 72 71 75
38 47 48 52 56 52 49 50 49 52 58 67 69 72 76 79 83 85 82 80 77 70 74 72 69 70 71 74 79 80 78 79
37 40 43 47 46 50 49 49 58 62 67 71 75 74 76 79 79 81 81 79 76 72 66 64 64 64 64 67 68 71 80 83
37 42 42 44 45 50 54 57 61 65 70 74 72 70 67 69 68 72 72 71 48 66 65 66 68 66 64 69 72 80 79 77
36 39 44 44 51 56 58 58 61 69 73 67 63 62 60 61 64 66 66 63 64 63 64 68 68 67 67 72 77 74 74 75
35 39 44 53 52 55 58 50 51 59 64 60 60 61 59 60 64 66 62 63 64 64 67 67 65 65 68 71 72 67 68 69
43 48 50 52 54 49 46 47 44 47 51 58 59 59 58 61 62 59 63 63 65 64 64 63 63 64 68 68 66 71 69 70
50 51 54 51 46 44 42 43 42 43 46 50 56 59 56 57 56 58 61 62 64 61 59 65 66 68 53 57 62 64 69 68
54 54 50 47 44 44 44 46 44 43 44 47 51 56 52 54 57 59 60 60 63 62 64 67 69 53 45 58 55 62 64 61
48 47 47 45 47 47 44 48 47 44 44 44 47 52 51 53 56 57 57 61 63 62 64 65 59 50 38 62 62 68 70 71
42 37 37 37 41 43 42 44 45 43 43 40 41 47 46 51 54 56 58 62 60 61 61 60 62 44 70 73 75 70 72 69
38 38 37 39 41 39 40 39 41 40 39 36 42 44 46 50 51 53 57 62 63 62 57 59 63 66 68 68 74 65 70 69
38 39 41 40 40 39 40 38 40 42 39 37 39 44 45 48 52 53 61 64 60 58 59 58 63 52 70 70 72 69 68 70
Wind_Speed
9 8 7 7 5 4 4 4 5 4 3 3 3 3 1 1 2 2 3 4 5 5 5 6 5 4 5 6 5 6 2 8
9 8 7 7 5 5 3 6 4 4 3 2 2 1 1 1 1 1 2 2 4 5 3 4 4 5 5 6 4 6 5 11
8 8 8 7 8 6 4 5 4 3 1 1 2 2 1 1 1 3 1 1 1 3 2 2 3 3 5 5 5 4 3 5
11 10 8 7 8 8 6 5 5 4 4 2 2 2 2 3 2 2 3 3 2 1 1 1 1 1 2 2 3 4 3 4
11 10 8 8 8 8 8 7 6 4 4 4 3 2 1 3 2 1 4 4 4 4 3 3 3 2 3 2 1 1 1 3
14 13 13 9 9 9 8 8 5 5 5 5 3 2 1 4 3 6 7 6 7 7 6 6 6 5 6 6 4 3 2 2
15 13 9 8 7 8 8 8 8 6 4 2 3 3 4 5 5 5 4 4 5 8 9 7 7 8 8 8 7 6 6 4
14 12 12 10 9 9 7 8 4 3 4 7 7 7 7 7 5 4 6 5 5 9 9 9 8 9 9 9 8 8 9 8
15 16 15 14 12 9 8 7 7 8 8 7 6 6 5 4 5 4 4 4 3 6 7 7 8 9 9 8 6 7 8 8
16 15 15 13 11 10 7 10 8 7 8 6 6 6 6 6 6 5 4 4 6 6 6 6 6 6 7 7 6 6 5 6
13 14 13 11 6 8 9 8 9 7 7 6 6 6 6 6 6 6 6 5 5 6 7 6 6 6 6 6 4 4 4 4
13 10 8 8 10 11 9 9 10 8 7 6 6 5 6 6 6 5 5 5 6 6 6 6 6 7 7 6 6 4 5 5
9 11 13 12 11 10 9 7 9 7 6 6 6 6 6 6 6 5 5 5 5 5 5 5 6 6 7 8 9 6 7 7
13 13 12 11 10 9 8 7 7 6 6 6 6 5 5 5 5 5 5 5 4 5 5 5 6 6 9 9 8 8 7 7
14 12 11 9 8 8 7 6 5 5 6 5 5 4 5 4 4 4 3 4 4 5 5 5 5 6 8 6 8 7 7 7
14 13 10 8 7 6 6 6 6 5 5 5 4 4 5 3 3 3 4 4 3 4 4 4 6 6 5 7 6 6 6 6
13 12 11 9 8 7 5 5 4 4 5 4 4 5 3 1 1 4 4 5 5 3 4 5 6 4 6 9 6 5 5 8
12 10 9 7 6 6 5 4 3 4 2 2 4 2 1 2 4 5 6 6 3 3 5 4 4 4 7 10 9 6 5 8
11 9 8 6 5 5 3 3 1 2 3 2 1 0 2 4 5 6 5 3 4 5 5 6 4 5 7 8 11 6 7 8
Wind_Direction
172 159 158 146 143 132 97 54 46 66 68 81 74 78 69 67 77 70 61 61 61 52 28 23 14 8 6 4 0 0 333 347
165 170 153 135 139 128 105 85 35 46 20 42 40 96 314 325 324 98 79 63 57 60 53 38 21 26 357 2 341 355 341 356
168 166 167 171 155 152 137 104 73 71 89 57 148 164 212 215 266 290 306 339 78 101 64 36 50 39 12 4 22 347 335 17
173 174 171 160 148 161 168 145 124 108 98 96 71 65 12 358 342 318 276 254 259 265 205 288 353 38 38 350 359 37 344 327
175 169 165 176 174 163 172 165 152 145 128 92 109 147 153 233 249 338 331 340 299 278 285 292 310 318 310 296 308 276 107 326
181 181 174 186 166 169 171 169 178 186 171 161 156 185 319 1 356 12 10 10 17 1 345 346 335 333 317 311 301 279 232 221
182 181 155 173 176 162 167 166 204 202 200 49 53 33 42 46 22 27 12 9 31 20 17 12 6 4 357 344 330 314 303 283
175 161 166 168 177 175 182 180 198 145 104 88 86 85 81 65 46 39 31 13 25 12 12 13 9 5 10 8 8 360 357 350
174 171 170 174 174 180 190 133 108 111 106 97 89 85 80 70 60 53 39 26 28 10 17 13 10 13 12 6 3 2 14 15
171 167 170 172 176 186 141 125 114 116 115 112 91 85 80 75 60 56 51 31 22 20 18 9 8 9 3 358 0 16 26 12
163 169 172 176 158 114 111 110 118 112 108 94 89 85 73 63 58 47 38 20 20 11 9 9 3 354 349 358 352 1 15 347
159 159 149 114 111 111 112 108 104 94 93 96 87 74 65 57 57 50 30 22 13 15 14 7 356 341 337 339 332 324 328 315
118 116 117 110 109 108 106 98 94 95 96 87 79 70 59 59 58 39 32 27 19 19 3 353 340 336 333 326 320 311 315 323
106 106 109 111 110 107 100 92 95 99 92 84 64 56 69 67 52 36 34 19 4 352 349 341 346 342 334 321 352 348 338 319
113 106 107 110 109 108 105 97 96 86 73 67 60 63 80 73 53 38 10 345 339 341 337 341 335 332 324 12 347 329 319 320
118 120 119 116 108 101 91 84 70 68 57 48 46 91 93 74 49 348 319 327 312 312 337 329 318 337 355 344 341 332 315 322
126 124 119 116 112 105 97 88 79 69 50 26 51 101 105 79 314 299 305 306 295 313 325 312 321 322 330 340 351 329 319 316
124 119 114 110 111 113 98 84 63 50 38 6 126 134 155 286 289 304 306 286 303 279 290 303 302 300 304 335 336 318 302 302
122 116 114 120 123 111 116 76 22 315 312 62 98 267 267 277 291 294 289 273 258 267 274 277 270 282 299 316 314 306 301 290